EHI
26 22 18 18 19 15 9 5 3 3 3 3 4 5 6 6 6 6 6 6 6 5 3 2 2 2 2 2 1 0 0 0 0 0 0 0 0 0 0 0 0 0 0
28 25 21 18 16 12 8 4 3 3 3 3 4 5 6 6 6 6 6 6 6 4 2 1 1 1 1 1 0 0 0 0 0 0 0 0 0 0 0 0 0 0 0
30 28 24 19 14 9 6 4 3 3 2 2 3 3 4 5 6 6 6 6 4 2 0 0 0 0 0 0 0 0 0 0 0 0 0 0 0 0 0 0 0 0 0
27 27 25 22 16 10 7 5 3 1 1 1 2 2 2 3 4 4 5 5 3 1 0 0 0 0 0 0 0 0 0 0 0 0 0 0 0 0 0 0 0 0 0
25 25 25 23 19 14 9 6 4 3 2 3 3 3 3 3 3 4 4 3 1 0 0 0 0 0 0 0 0 0 0 0 0 0 0 0 0 0 0 0 0 0 0
24 24 23 22 19 15 12 9 7 7 6 6 5 4 3 3 3 3 3 2 1 0 0 0 0 0 0 0 0 0 0 0 0 0 0 0 0 0 0 0 0 0 0
24 24 23 22 19 16 15 13 10 9 9 8 6 4 3 2 1 1 1 1 1 0 0 0 0 1 1 0 0 0 0 0 0 0 0 0 0 0 0 0 0 0 0
23 24 25 23 20 18 17 15 13 12 10 9 6 4 3 2 0 0 0 0 0 0 0 0 0 1 2 1 0 0 0 0 0 0 0 0 0 0 0 0 0 0 0
23 25 26 24 21 20 20 18 16 15 13 10 8 5 3 2 1 0 0 0 0 0 0 0 0 1 1 1 1 1 0 0 0 0 0 0 0 0 0 0 0 0 0
24 24 24 22 21 21 21 20 19 18 16 13 9 6 4 4 2 1 0 0 1 1 1 1 1 1 1 0 1 1 0 0 0 0 0 0 0 0 0 0 0 0 0
21 20 18 16 17 18 19 19 20 20 19 16 11 7 6 5 4 1 0 0 1 2 3 4 3 2 0 0 0 0 0 0 0 0 0 0 0 0 0 0 0 0 0
16 14 11 11 13 14 15 17 20 22 21 18 13 9 7 6 5 2 0 0 1 1 2 4 3 1 0 0 0 0 0 0 0 0 0 0 0 0 0 0 0 0 0
11 9 7 8 9 10 12 14 18 20 19 17 14 11 9 8 5 3 1 0 0 0 1 2 2 1 0 0 0 0 0 0 0 0 0 0 0 0 0 0 0 0 0
8 7 6 6 6 7 9 11 13 16 17 16 14 13 11 10 7 4 2 1 0 0 0 1 1 0 0 0 0 0 0 0 0 0 0 0 0 0 0 0 0 0 0
7 7 6 6 5 6 7 8 9 11 13 13 11 11 11 10 7 4 2 1 0 0 0 0 0 0 0 0 0 0 0 0 0 0 0 0 0 0 0 0 0 0 0
7 7 6 6 5 5 6 5 6 7 7 7 6 6 7 7 5 2 1 1 0 0 0 0 0 0 0 0 0 0 0 0 0 0 0 0 0 0 0 0 0 0 0
7 7 6 5 5 5 5 5 5 4 3 2 1 2 2 2 1 0 0 0 0 0 0 0 1 0 0 0 0 0 1 1 0 0 0 0 0 0 0 0 0 0 0
8 8 7 6 5 4 4 4 5 5 3 1 1 0 0 0 0 0 0 0 0 0 0 0 0 0 0 0 0 0 1 1 1 1 0 0 0 0 0 0 0 0 0
9 9 9 8 7 5 4 4 5 5 4 3 3 1 0 0 0 0 0 0 0 0 0 0 0 0 0 0 0 0 0 1 1 1 0 0 0 0 0 0 0 0 0
10 10 10 9 8 7 6 5 5 5 5 5 4 2 1 0 0 0 0 0 0 0 0 0 0 0 0 0 0 0 0 0 1 1 0 0 0 0 0 0 0 0 0
10 10 10 9 9 8 6 5 4 4 4 4 3 2 1 0 0 0 0 0 0 0 0 0 0 0 0 0 0 0 0 0 0 0 0 0 0 0 0 0 0 0 0
10 9 9 8 8 6 5 4 3 3 3 2 1 1 0 0 0 0 0 0 0 0 0 0 0 0 0 0 0 0 0 0 0 0 0 0 0 0 0 1 1 1 1
10 9 8 7 7 6 4 3 3 3 3 1 0 0 0 0 0 0 0 0 0 0 0 0 0 0 0 0 0 0 0 0 0 0 0 0 0 0 0 1 2 2 2
12 9 7 6 6 5 4 3 3 3 2 1 0 0 0 0 0 0 0 0 0 0 0 0 0 0 0 0 0 0 0 0 0 0 0 0 0 0 0 0 1 3 3
13 11 8 6 5 4 3 3 3 3 1 0 0 0 0 0 0 0 0 0 0 0 0 0 0 0 0 0 0 0 0 0 0 0 0 0 0 0 0 0 1 2 2
13 12 9 5 4 4 3 3 3 2 1 0 0 0 0 0 0 0 0 0 0 0 0 0 0 0 0 0 0 0 0 0 0 0 0 0 0 0 0 0 0 1 1
Wind_Speed
6 5 4 4 4 4 3 3 3 2 2 2 2 1 1 1 1 1 1 1 1 0 0 0 0 0 0 0 1 1 2 2 2 1 0 0 1 1 1 1 1 1 1
6 6 5 4 4 4 3 3 3 2 2 2 2 2 1 1 1 2 2 1 1 1 0 0 0 1 1 0 1 1 1 2 3 2 1 0 1 1 1 2 1 1 1
6 6 5 4 4 4 3 3 3 2 2 1 2 2 1 1 1 1 2 1 1 1 1 1 1 1 1 0 1 1 1 2 2 3 1 1 1 1 2 1 1 1 1
6 6 6 5 5 4 3 3 3 3 2 2 2 2 1 1 1 1 1 1 1 1 1 1 1 2 2 1 1 1 2 2 2 2 2 1 1 1 1 1 1 1 1
7 7 6 5 5 4 4 3 3 3 3 2 2 1 1 1 1 1 1 2 2 2 1 1 1 2 2 2 2 2 3 2 2 2 2 1 1 1 1 1 1 0 1
7 7 6 5 5 4 4 4 3 3 2 2 2 2 1 1 1 2 2 2 2 2 2 1 1 1 2 2 3 3 4 4 3 3 2 2 2 2 2 2 1 1 1
6 6 6 5 5 5 5 4 4 3 3 3 3 2 2 2 3 3 3 2 2 2 3 2 1 1 1 1 1 1 1 3 5 5 4 4 4 4 3 2 2 2 2
6 6 6 6 6 5 4 4 4 3 3 3 3 3 3 2 3 3 3 2 2 2 3 3 3 2 2 2 2 1 0 1 3 3 4 4 4 4 5 5 4 2 0
5 6 6 6 6 5 5 5 4 3 3 3 3 4 3 3 4 4 4 2 1 1 2 2 3 3 3 3 3 2 1 2 1 2 4 4 5 5 5 3 3 3 1
5 5 5 5 5 6 6 4 3 3 4 3 3 3 4 4 5 5 5 2 2 1 1 2 4 5 4 4 3 3 3 3 1 0 1 1 2 3 5 5 5 4 2
3 3 3 3 4 4 4 3 3 3 3 3 3 3 3 4 5 5 6 3 3 2 2 2 3 6 6 6 5 4 6 4 2 2 1 1 1 1 2 3 4 5 4
3 3 2 2 2 2 2 3 3 3 3 3 3 3 3 3 4 5 6 6 5 4 4 3 3 6 6 6 4 5 5 3 2 2 2 2 2 3 3 3 4 4 4
3 3 2 2 1 2 3 3 2 2 3 3 3 3 3 3 3 5 5 6 6 4 4 5 5 6 6 4 6 6 4 3 2 2 3 4 4 4 2 2 2 2 1
4 3 2 2 2 2 2 3 3 4 3 3 3 3 3 3 2 2 3 3 4 3 3 3 5 5 4 4 3 3 3 4 4 4 4 3 2 2 2 2 2 2 1
3 2 2 2 3 3 2 2 3 4 5 5 4 4 4 4 5 6 4 3 3 4 2 1 1 1 2 2 2 2 3 2 3 3 3 3 3 3 3 2 2 2 2
3 3 3 2 2 2 2 2 2 3 4 5 5 5 4 5 5 6 6 6 5 4 3 2 2 3 4 4 4 4 4 4 4 4 4 4 4 4 3 3 3 3 3
5 4 3 3 3 3 3 3 3 2 2 2 3 4 5 4 4 5 6 5 5 5 3 3 3 4 4 4 4 4 4 5 4 4 4 4 4 4 4 3 3 3 3
5 5 4 4 3 4 4 4 3 3 2 2 2 2 3 3 3 4 4 3 2 3 3 3 4 4 4 4 4 4 4 3 3 4 4 4 4 4 4 4 4 4 4
4 4 4 3 3 3 3 3 3 3 3 2 2 1 1 2 2 2 3 2 3 3 3 3 3 3 3 3 3 3 3 3 3 3 3 4 4 4 4 4 4 6 4
3 4 4 3 3 3 3 3 3 3 3 3 3 3 2 1 1 1 2 3 3 3 3 4 4 3 3 3 3 3 3 3 3 3 3 3 3 4 4 5 5 5 5
2 3 4 3 3 3 3 3 4 4 4 4 4 4 5 3 3 4 3 4 4 4 4 4 4 3 3 2 2 3 3 3 3 3 3 3 3 3 3 4 4 4 4
2 2 2 3 3 3 3 3 3 3 4 4 3 3 5 3 3 3 4 4 4 4 4 4 3 3 3 3 3 3 3 3 3 3 3 3 3 3 3 3 3 4 4
2 3 3 3 3 4 3 3 3 3 3 3 3 3 3 3 3 3 4 4 3 3 3 3 3 3 3 3 3 3 4 4 4 4 4 4 4 4 3 4 4 4 4
3 3 3 3 3 3 3 3 3 3 3 3 3 3 3 3 3 3 3 3 2 2 2 3 3 5 5 4 3 3 3 3 3 3 4 4 4 4 3 3 4 5 4
2 2 3 3 3 3 2 2 3 3 3 2 2 2 2 2 2 2 2 2 3 3 3 3 3 4 4 5 4 3 4 4 4 2 2 2 3 4 4 4 4 4 4
2 2 2 2 2 2 2 2 2 2 2 2 2 2 2 2 3 3 2 2 2 2 3 2 3 4 4 4 4 4 4 4 4 4 3 3 3 3 3 3 4 4 4
Wind_Direction
180 179 170 161 160 150 153 162 162 155 149 146 155 155 152 150 147 136 166 156 157 281 292 145 238 198 138 272 117 123 133 141 158 228 173 90 84 82 66 64 68 65 93
180 168 165 159 156 158 163 168 159 154 151 147 146 151 162 164 165 164 182 167 161 177 238 107 254 99 76 62 98 110 133 141 145 156 184 118 97 141 112 101 85 83 96
170 164 162 160 163 173 175 165 154 149 144 136 135 147 169 181 170 179 179 173 169 171 155 138 153 114 101 95 105 112 121 117 126 141 162 150 81 74 72 62 72 57 108
167 168 170 176 177 180 173 164 161 156 153 156 152 161 173 171 144 154 145 144 141 140 134 124 118 133 150 139 126 133 124 111 113 123 126 112 104 71 88 79 34 16 44
168 171 176 178 177 167 165 168 168 167 169 165 156 167 174 164 166 146 148 138 142 130 110 113 117 125 139 154 150 150 137 130 128 130 137 120 118 122 182 185 143 57 2
168 173 171 169 169 169 174 172 175 181 181 168 177 184 188 211 184 159 150 146 154 156 157 167 142 117 138 139 146 161 164 159 163 159 168 173 202 201 185 172 155 134 261
167 170 168 168 173 184 186 180 190 198 189 183 196 187 197 225 200 173 163 165 173 182 178 179 181 151 144 142 137 128 171 191 181 174 181 197 196 200 182 180 186 181 198
169 173 175 180 185 188 187 194 200 198 193 197 202 196 199 232 209 184 181 174 186 191 186 181 173 183 197 171 153 139 230 251 214 192 194 205 202 198 191 188 188 172 175
175 182 185 185 186 190 197 203 199 190 198 202 197 196 201 224 212 199 181 170 179 212 212 195 183 185 203 174 151 165 209 287 275 212 207 215 215 202 181 147 139 135 187
187 188 186 185 188 197 202 199 192 192 205 199 208 210 202 212 220 209 189 178 185 216 238 219 198 194 199 182 174 180 204 239 242 326 273 259 238 219 194 178 171 166 168
171 165 176 185 193 199 196 190 185 189 189 198 218 228 218 218 217 205 189 183 195 209 227 237 229 206 203 201 193 200 217 216 208 206 226 250 255 233 217 200 186 175 174
138 142 159 172 187 185 187 190 184 182 190 209 222 242 244 234 218 213 202 201 196 201 222 228 228 216 212 213 216 227 221 205 185 191 210 227 228 232 231 215 207 205 199
148 162 178 180 191 187 186 185 190 198 200 215 217 230 246 248 242 225 214 217 213 210 221 221 224 225 222 226 232 227 212 196 190 205 221 230 227 223 215 213 216 208 220
171 187 188 188 202 203 195 187 194 207 212 217 218 226 240 244 240 232 231 230 232 234 233 227 222 221 220 229 241 238 224 212 205 214 222 229 220 207 205 193 193 188 188
187 202 205 206 209 212 213 214 211 217 209 206 215 210 217 235 236 218 207 216 217 219 204 196 185 190 220 240 242 238 231 223 225 229 226 227 221 213 218 203 184 173 186
195 203 207 217 221 213 208 242 252 239 245 224 224 216 226 234 229 213 215 219 213 194 172 196 215 216 220 225 231 237 230 228 230 227 223 218 217 212 212 203 189 189 202
204 208 208 211 209 206 206 210 240 285 304 277 254 236 227 226 218 213 212 215 207 183 192 213 219 226 231 231 230 231 235 234 225 221 225 221 218 212 201 204 202 202 212
209 212 210 210 204 202 208 215 214 211 234 275 278 254 236 223 214 212 196 164 196 201 221 223 226 230 232 232 233 236 240 240 230 225 224 222 214 207 204 207 206 206 211
210 215 212 214 212 212 212 215 218 213 216 227 235 265 229 204 196 200 171 181 213 225 230 235 236 237 240 239 237 238 238 234 235 226 220 216 212 205 209 212 211 211 211
219 224 211 203 208 216 213 213 216 213 213 217 224 226 197 146 173 205 204 218 224 229 227 231 237 235 230 229 231 232 236 238 235 233 229 225 219 207 207 210 210 209 215
220 224 216 209 210 217 217 217 215 210 212 217 227 220 196 194 211 214 215 225 228 231 229 227 226 224 226 227 227 230 233 240 236 232 231 229 221 218 218 215 215 213 213
198 201 202 208 213 217 217 213 212 214 217 220 228 219 206 206 214 220 224 229 229 228 224 219 224 223 221 223 224 228 235 243 244 237 235 232 226 223 218 217 219 216 209
197 205 210 218 216 217 218 218 214 214 216 215 210 207 205 215 221 227 230 232 231 232 230 222 225 235 236 229 222 219 230 240 237 226 223 226 227 223 216 217 219 218 218
208 210 212 217 216 215 218 220 216 217 215 210 210 213 216 222 228 233 233 232 232 241 234 225 231 236 235 232 230 228 237 245 244 231 223 224 223 222 219 221 224 221 220
214 220 221 214 214 213 213 212 209 210 212 212 210 215 223 229 234 236 229 222 227 240 244 239 238 236 230 230 235 238 239 231 228 233 229 226 232 232 226 225 225 223 222
221 228 221 209 205 202 199 205 209 201 195 200 202 205 211 216 226 233 231 227 234 242 248 247 240 233 233 234 234 231 230 228 224 224 220 219 222 234 235 234 230 227 226